{"data":{"norad_id":55925,"intl_designator":"2023-037M","name":"STARLINK-5922","alt_names":[],"object_type":"PAYLOAD","status":"ACTIVE","operator":null,"country":"US","launch_date":"2023-03-17","launch_site_code":"AFWTR","launch_vehicle":null,"mission":null,"orbit_class":"UNKNOWN","rcs_meters":null,"size_class":null,"mass_kg":null,"dimensions":null,"purposes":["comms"],"wikipedia_slug":null,"has_3d_model":false,"image_url":null,"decayed_at":null,"tle_current":{"epoch":"2026-05-25T03:51:06.664320Z","epoch_age_seconds":58397,"freshness":"FRESH","line1":"1 55925U 23037M   26145.16049380 -.00000235  00000+0 -11870-4 0  9992","line2":"2 55925  69.9993 111.5720 0003263 268.4915  91.5870 14.98330435174944","mean_motion":14.98330435,"eccentricity":0.0003263,"inclination_deg":69.9993,"raan_deg":111.572,"arg_perigee_deg":268.4915,"mean_anomaly_deg":91.587,"bstar":-1.187e-5,"rev_number":17494,"period_min":96.106971223607,"perigee_km":569.78669824175,"apogee_km":574.3223932445,"semimajor_km":6950.1915457431,"source":"CELESTRAK","updated_at":"2026-05-25T13:38:17.912260Z"}}}